ONEWEB-0012 (44057 NORAD) Tracking and Keplerian Element Data

This shows tracking and keplerian element data for the satellite.

Feedback or suggestion? Click here.




ElementValue
Catalog44057
NameONEWEB-0012
Epoch Orbit301
Epoch Day80.95558681
Epoch Year2019
RAAN65.6679
Inclination87.7716
Eccentricity0.0016947
Argument of Perigee181.8228
Mean Anonmoly178.2874
Mean Motion13.69557807
Decay Rate5.4E-07
L11 44057U 19010A 19080.95558681 .00000054 00000-0 44893-4 0 9997
L22 44057 87.7716 65.6679 0016947 181.8228 178.2874 13.69557807 3016

Live tracking and technical data element details for ONEWEB-0012 (NORAD 44057). ONEWEB-0012 can be tracked NOW for your location showing map with azimuth and elevation plus other details from your city location.

Track the satellite on the map from your city or location and see movement details for azimuth, elevation, latitude, longitude, range, height, and movement on the map or in text.







IsCatalogInMostPopularTable: catalog: 44057, numindb: 71
Update: records affected: 1



GetName: 44057 ONEWEB-0012

Hit Count: updated at: Sat, 23 Mar 2019 00:08:47 GMT